Lancaster, CA

10:58 AM PDT on August 17, 2017 (GMT -0700)
Gen Fox

Weather History for KWJF - December, 2014

Change the Weather History Date:

Saturday, December 27, 2014

  Actual Average Record
Temperature  
Mean Temperature 35 °F 43 °F  
Max Temperature 47 °F 57 °F 70 °F (2005)
Min Temperature 22 °F 29 °F 13 °F (1990)
Degree Days  
Heating Degree Days 30    
Month to date heating degree days 470  
Since 1 July heating degree days 867  
Cooling Degree Days 0    
Month to date cooling degree days 0  
Year to date cooling degree days 2055  
Moisture  
Dew Point 18 °F    
Average Humidity 55    
Maximum Humidity 84    
Minimum Humidity 25    
Precipitation  
Precipitation 0.00 in 0.05 in 1.41 in (1977)
Month to date precipitation 2.62 0.95  
Year to date precipitation 5.27 7.18  
Since 1 July precipitation 2.95  
Snow  
Snow 0.00 in - 5.30 in (1971)
Month to date snowfall 0.0  
Since 1 July snowfall 0.0  
Snow Depth 0.00 in    
Sea Level Pressure  
Sea Level Pressure 30.41 in    
Wind  
Wind Speed 5 mph (NNE)    
Max Wind Speed 14 mph    
Max Gust Speed 19 mph    
Visibility 10 miles    
Events      
T = Trace of Precipitation, MM = Missing Value Source: NWS Daily Summary

Daily Weather History Graph

Daily Weather History Graph

Search for Another Location

Airport or City:

Trip Planner

Search our weather history database for the weather conditions in past years. The results will help you decide how hot, cold, wet, or windy it might be!

Date:

Astronomy

Dec. 27, 2014 Rise Set
Actual Time 6:58 AM PST 4:49 PM PST
Civil Twilight 6:30 AM PST 5:17 PM PST
Nautical Twilight 5:59 AM PST 5:48 PM PST
Astronomical Twilight 5:28 AM PST 6:19 PM PST
Moon 11:03 AM PST (12/27) 11:28 PM PST (12/27)
Length of Visible Light 10h 46m
Length of Day
9h 50m
Waxing Crescent, 39% of the Moon is Illuminated
Dec 27
Waxing Crescent
Dec 28
First Quarter
Jan 4
Full
Jan 13
Last Quarter
Jan 20
New

Hourly Weather History & Observations

Time (PST) Temp. Windchill Dew Point Humidity Pressure Visibility Wind Dir Wind Speed Gust Speed Precip Events Conditions
12:56 AM 27.0 °F 21.6 °F 19.9 °F 75% 30.32 in 10.0 mi ENE 4.6 mph - N/A   Clear
1:56 AM 25.0 °F 20.7 °F 19.0 °F 78% 30.35 in 10.0 mi West 3.5 mph - N/A   Clear
2:56 AM 24.1 °F 18.2 °F 19.0 °F 81% 30.37 in 10.0 mi NNW 4.6 mph - N/A   Clear
3:56 AM 24.1 °F 19.7 °F 19.0 °F 81% 30.38 in 10.0 mi East 3.5 mph - N/A   Clear
4:56 AM 21.9 °F - 18.0 °F 85% 30.41 in 10.0 mi Calm Calm - N/A   Clear
5:56 AM 21.9 °F 14.5 °F 18.0 °F 85% 30.44 in 10.0 mi North 5.8 mph - N/A   Clear
6:56 AM 24.1 °F - 18.0 °F 77% 30.45 in 10.0 mi Calm Calm - N/A   Clear
7:56 AM 26.1 °F - 19.9 °F 78% 30.48 in 10.0 mi Calm Calm - N/A   Clear
8:56 AM 35.1 °F 31.0 °F 19.9 °F 54% 30.48 in 10.0 mi NNE 4.6 mph - N/A   Clear
9:56 AM 39.9 °F 33.9 °F 17.1 °F 40% 30.49 in 10.0 mi ENE 9.2 mph - N/A   Clear
10:56 AM 44.1 °F 39.5 °F 16.0 °F 32% 30.46 in 10.0 mi ENE 8.1 mph - N/A   Clear
11:56 AM 46.0 °F 41.0 °F 14.0 °F 28% 30.43 in 10.0 mi East 10.4 mph - N/A   Clear
12:56 PM 46.0 °F 40.6 °F 12.0 °F 25% 30.40 in 10.0 mi ENE 11.5 mph - N/A   Clear
1:56 PM 46.9 °F - 14.0 °F 27% 30.40 in 10.0 mi NNE 9.2 mph - N/A   Clear
2:56 PM 46.9 °F - 12.0 °F 24% 30.39 in 10.0 mi NE 9.2 mph - N/A   Clear
3:56 PM 46.0 °F 43.9 °F 12.0 °F 25% 30.39 in 10.0 mi ENE 4.6 mph - N/A   Clear
4:56 PM 41.0 °F 39.0 °F 17.1 °F 38% 30.40 in 10.0 mi NE 3.5 mph - N/A   Clear
5:56 PM 36.0 °F 33.3 °F 19.0 °F 50% 30.43 in 10.0 mi North 3.5 mph - N/A   Clear
6:56 PM 30.9 °F 25.2 °F 21.0 °F 67% 30.43 in 10.0 mi West 5.8 mph - N/A   Clear
7:56 PM 30.0 °F 24.1 °F 21.0 °F 69% 30.44 in 10.0 mi WSW 5.8 mph - N/A   Clear
8:56 PM 30.9 °F 27.5 °F 19.9 °F 64% 30.42 in 10.0 mi SW 3.5 mph - N/A   Clear
9:56 PM 30.9 °F - 21.0 °F 67% 30.40 in 10.0 mi Calm Calm - N/A   Clear
10:56 PM 26.1 °F 21.9 °F 21.0 °F 81% 30.40 in 10.0 mi WNW 3.5 mph - N/A   Clear
11:56 PM 26.1 °F 20.5 °F 19.9 °F 78% 30.38 in 10.0 mi WNW 4.6 mph - N/A   Clear